Tracking 28920 objects as of 26-May-2024
HD Live streaming from Space Station
objects crossing your sky now

STARLINK-2293

Track STARLINK-2293 now!
10-day predictions
STARLINK-2293 is classified as:


NORAD ID: 47863
Int'l Code: 2021-021D
Perigee: 553.5 km
Apogee: 555.2 km
Inclination: 53.1 °
Period: 95.6 minutes
Semi major axis: 6925 km
RCS: Unknown
Launch date: March 14, 2021
Source: United States (US)
Launch site: AIR FORCE EASTERN TEST RANGE (AFETR)
Your satellite tracking list
Your tracking list is empty




NASA's NSSDC Master Catalog

Two Line Element Set (TLE):
1 47863U 21021D   24147.61578014  .00005678  00000-0  39984-3 0  9996
2 47863  53.0551 318.8925 0001200  41.2181 318.8898 15.06391695177910
Source of the keplerian elements: AFSPC